COSMOS 886 DEB, 9822

Orbit data source: Space-Track

COSMOS 886 DEB, 9822 is space debris in LEO originally from a launch on Mon, 27 Dec 1976 UTC launched from the Tyuratam Missile And Space Complex (TTMTR). Debris objects in space refer to the collection of defunct objects orbiting the Earth. Examples of debris include non-operational satellites, rocket bodies, and fragments generated from explosions, collisions, or faulty payload assembly.

Loading next visibility...
Identifier
9822, 1976-126AJ
Orbit
LEO
Country
Flag of CISCIS
Related business
Manufacturer
Unknown
Mission
Spacecraft
Bus & Motor
Unknown
Mass
Unknown
Launch date (UTC)
1976-12-27 (49 years ago)
Launch vehicle
Unknown
Launch site
Tyuratam Missile And Space Complex (TTMTR)
Object type
Payload
Rocket body
Debris
Shape & HBR
Unknown shape, 0.1 m
Radar Cross Section
Small (<0.1 m²)

Expand to show TLE details & history
Last TLE update: 11 hours ago

TLE from 11 hours ago
0 COSMOS 886 DEB
1  9822U 76126AJ  26130.08285374  .00000400  00000-0  22625-3 0  9996
2  9822  65.7781 139.0528 0910083 107.7191 262.5196 12.96660917302500
Epoch: 2026-05-10T01:59Z
TLE epoch observation values (Epoch: 2026-05-10T01:59:18.563Z)
Latitude
-0.00007°
Longitude
-118.66561°
Altitude
1,428.745 km
Speed
7.076 km/s
True Right ascension
09h 16m 12s
True Declination
0° 00' 00"
Sunlit
Object was in daylight at epoch
Visualization orbit readout
Latitude
Unknown
Longitude
Unknown
Altitude
Unknown
Speed
Unknown
Apparent Right ascension
Unknown
Apparent Declination
Unknown
Sunlit
N/A
Visualization observer readout
Local Sidereal Time
21:18:48
Azimuth
Unknown
Elevation
Unknown
Doppler factor
Unknown
Orbital elements
Apogee altitude
1,970.15 km
Perigee altitude
577.377 km
Semi-major axis
7,651.901 km
Eccentricity
0.09101
Inclination
65.7781°
RAAN
139.0528°
Arg. of periapsis
107.7191°
True anomaly
252.38357°
Mean anomaly
262.5196°
Eccentric anomaly
257.43019°
Mean motion
3.24257 °/min
Orbital period
111.02 mins
BSTAR
0.00022625
Loading maneuver chart data...
Computing Atmospheric mass density...
Loading historical data...
Loading historical data...
Loading historical data...
Loading historical data...
Loading historical data...
Loading historical data...
Loading historical data...

Documentation

Showing up to 5 results
|